Regional Weather Roundup
Issued by NWS State College, PA

Home | Current Version | Previous Version | Graphics & Text | Print | Product List | Glossary On
Versions: 1 2 3 4 5 6 7 8 9 10 11 12 13 14 15 16 17 18 19 20 21 22 23 24 25 26 27 28 29 30 31 32 33 34 35 36 37 38 39 40 41 42 43 44 45 46 47 48 49 50
000
ASUS41 KCTP 171510
RWRCTP

REGIONAL WEATHER ROUNDUP
NATIONAL WEATHER SERVICE STATE COLLEGE PA
1000 AM EST FRI NOV 17 2017

Note: "fair" indicates few or no clouds below 12,000 feet with no
significant weather and/or obstructions to visibility.

* = STATION THAT DOES NOT REPORT PRECIPITATION /E.G. RAIN...SNOW...ETC/
    THUNDER OR FOG.

PAZ002>004-007>009-013>016-020>023-029>032-171600-
WESTERN PENNSYLVANIA

CITY           SKY/WX    TMP DP  RH WIND       PRES   REMARKS
ERIE           CLOUDY    36  27  69 CALM      30.27S
MEADVILLE      CLOUDY    33  31  92 W5        30.25S
FRANKLIN*      LGT RAIN  34  28  79 W7        30.25S
NEW CASTLE     CLOUDY    36  27  69 W6        30.28F
BEAVER COUNTY  CLOUDY    36  27  69 NW3       30.28S
BUTLER*        CLOUDY    36  26  67 W7        30.27F
PITTSBURGH INT CLOUDY    37  26  64 W6        30.28R
PITTSBURGH     CLOUDY    37  25  61 W6        30.28R
INDIANA*       CLOUDY    36  28  75 W8G14     30.29S
LATROBE        CLOUDY    37  27  65 W7        30.29R
WASHINGTON CO* CLOUDY    38  27  64 W6        30.32R
$$

PAZ004>006-010>012-017>019-024>028-033>037-041-042-045-046-049>053-171600-
CENTRAL PENNSYLVANIA

CITY           SKY/WX    TMP DP  RH WIND       PRES   REMARKS
BRADFORD       MOSUNNY   31  25  78 N8        30.18F
DUBOIS         CLOUDY    31  24  75 W9        30.21S
CLEARFIELD     CLOUDY    35  25  66 W10       30.22S
JOHNSTOWN      CLOUDY    32  25  75 W13       30.20R
ALTOONA        MOSUNNY   39  27  62 NW16      30.22R
STATE COLLEGE  MOSUNNY   37  25  60 SW10      30.21R
WILLIAMSPORT   SUNNY     42  24  49 NW10      30.20R
SELINSGROVE    SUNNY     41  26  55 NW10G17   30.21S
FT INDIANTOWN  MOSUNNY   41  23  47 NW12G23   30.18S
CAPITAL CITY   MOSUNNY   44  24  45 NW14G22   30.20S
HARRISBURG     MOSUNNY   44  29  55 W16       30.20R
YORK           SUNNY     42  28  57 NW10      30.21R
$$

PAZ038>040-043-044-047-048-054-055-060>062-067>071-171600-
EASTERN PENNSYLVANIA

CITY           SKY/WX    TMP DP  RH WIND       PRES   REMARKS
SCRANTON       MOSUNNY   37  22  54 NW13G22   30.15F
MOUNT POCONO   MOSUNNY   31  23  72 NW17G30   30.06R
ALLENTOWN      SUNNY     42  24  49 NW14      30.15R
QUAKERTOWN*    SUNNY     41  25  52 N12       30.16R
READING        SUNNY     43  27  53 NW14G25   30.17R
LANCASTER      SUNNY     44  30  57 NW10      30.18S
COATESVILLE    MOSUNNY   43  27  52 NW12      30.17S
POTTSTOWN      SUNNY     41  24  51 NW13G21   30.17S
BLUE BELL      SUNNY     41  27  56 NW6G20    30.17S
DOYLESTOWN     SUNNY     42  25  50 W13G23    30.14R
WILLOW GROVE   NOT AVBL
NORTH PHILA    SUNNY     46  26  45 NW12G23   30.16R
PHILADELPHIA   MOSUNNY   45  24  43 NW9G17    30.18R
$$




USA.gov is the U.S. government's official web portal to all federal, state and local government web resources and services.